Regional Weather Roundup
Issued by NWS

Home | Current Version | Previous Version | Text Only | Print | Product List | Glossary On
Versions: 1 2 3 4 5 6 7 8 9 10 11 12 13 14 15 16 17 18 19 20 21 22 23 24 25 26 27 28 29 30 31 32 33 34 35 36 37 38 39 40 41 42 43 44 45 46 47 48 49 50
000
ASUS45 KBOU 301110
RWRCO

WEATHER ROUNDUP FOR COLORADO
NATIONAL WEATHER SERVICE DENVER/BOULDER CO
500 AM MDT MON MAR 30 2020

NOTE: "FAIR" INDICATES FEW OR NO CLOUDS BELOW 12000 FEET WITH NO
SIGNIFICANT WEATHER AND/OR OBSTRUCTIONS TO VISIBILITY.

COZ001>005-013-030-031-301200-
...NORTHWEST COLORADO...

CITY           SKY/WX    TMP DP  RH WIND       PRES   REMARKS
CRAIG          CLOUDY    31  28  89 SE3       30.02R
HAYDEN         FAIR      29  25  85 E3        30.03R
MEEKER         LGT SNOW  31  29  92 CALM      30.01S FOG
RANGELY        CLOUDY    35  32  88 CALM      30.02R
RABBIT EARS PA LGT SNOW  21  21 100 CALM      30.01S
STEAMBOAT SPGS CLOUDY    28  26  91 CALM      30.00S
WALDEN         NOT AVBL
$$

COZ006>008-011-301200-
...WEST CENTRAL VALLEYS...

CITY           SKY/WX    TMP DP  RH WIND       PRES   REMARKS
GRAND JUNCTION CLOUDY    39  35  86 CALM      30.00R
MONTROSE       LGT RAIN  36  33  89 NE7       30.03S
EAGLE          MIX PCPN  32  29  88 CALM      30.04S
RIFLE          MOCLDY    35  33  92 CALM      30.02R
DELTA          CLOUDY    40  37  88 NE5       30.03R
NUCLA          LGT SNOW  34  32  93 CALM      30.04S
$$

COZ017>023-064>068-301200-
...SOUTHWEST COLORADO...

CITY           SKY/WX    TMP DP  RH WIND       PRES   REMARKS
DURANGO        MOCLDY    34  26  72 CALM      30.00R
CORTEZ         CLOUDY    33  31  92 E5        30.01S WCI  29
PAGOSA SPRINGS FAIR      30  28  92 CALM      30.00S THUNDER
TELLURIDE      CLOUDY    28  27  93 SE3       30.02F
WOLF CREEK PAS CLOUDY    18  18 100 S17G24    30.07S WCI   2
$$

COZ009-010-012-014-032>034-037-058>063-301200-
...CENTRAL COLORADO...

CITY           SKY/WX    TMP DP  RH WIND       PRES   REMARKS
ASPEN          CLOUDY    30  26  85 VRB3      29.99S
BUENA VISTA    LGT SNOW  30  29  95 CALM      30.00S
COPPER MTN     LGT SNOW  23  18  80 W3        30.02S
BERTHOUD PASS  NOT AVBL
DAKOTA HILL    FAIR      19  14  79 NW3       30.01S
COTTONWOOD PAS SNOW      28  28 100 CALM      30.00S VSB 1/2
GUNNISON       LGT SNOW  28  28 100 CALM      30.01S FOG
GRANBY         CLOUDY    25  18  75 CALM      30.02S
KREMMLING      CLOUDY    30  27  86 CALM      30.02S
LEADVILLE      LGT SNOW  22  18  85 CALM      29.99S FOG
MONARCH PASS   CLOUDY    19  18  93 S20       30.10F FOG     WCI   4
SALIDA         CLOUDY    34  32  94 CALM      30.07F
SUNLIGHT       NOT AVBL
WILKERSON PASS CLOUDY    21  19  93 SW7       30.04S FOG     WCI  13
$$

COZ069>075-301200-
...SAN LUIS VALLEY/SANGRE DE CRISTO MOUNTAINS...

CITY           SKY/WX    TMP DP  RH WIND       PRES   REMARKS
ALAMOSA        FAIR      29  19  66 S10       29.98F WCI  20
DEL NORTE      FAIR      23  18  80 W7        30.00S WCI  15
LA VETA PASS   LGT SNOW  25  21  86 SW7       30.02F WCI  17
SAGUACHE       FAIR      27  23  86 NW6       30.00S WCI  20
$$

COZ035-036-038>040-301200-
...NORTHERN COLORADO FRONT RANGE...

CITY           SKY/WX    TMP DP  RH WIND       PRES   REMARKS
DENVER INTL AP CLOUDY    41  24  51 SW8       29.96F
AURORA         LGT RAIN  42  32  68 S10G20    29.95F
WATKINS        NOT AVBL
ERIE           FAIR      34  27  75 CALM      30.03F
BOULDER        FAIR      37  27  65 CALM      29.97S
CENTENNIAL     CLOUDY    40  34  79 S6        29.95F
BROOMFIELD     FAIR      37  23  56 N7        29.98S
FORT COLLINS   CLOUDY    35  25  66 N8        29.97F WCI  29
LONGMONT       FAIR      39  24  54 NE6       29.99F
$$

COZ041-046-047-076>085-087-088-301200-
...PIKES PEAK/PALMER DIVIDE AND SOUTHERN FOOTHILLS...

CITY           SKY/WX    TMP DP  RH WIND       PRES   REMARKS
COLO. SPRINGS  FAIR      34  20  56 N6        29.95F WCI  29
A. F. ACADEMY  FAIR      31  20  64 N8        29.94F WCI  23
SCHRIEVER AFB  NOT AVBL
CHEYENNE MTN   MOCLDY    38  22  51 NW3       29.90F
ELLICOTT       CLOUDY    38  19  47 NE8       29.95F
FALCON         FAIR      33  19  55 N7        29.97F WCI  27
FORT CARSON    FAIR      40  23  49 W8        29.93F
LIMON          CLOUDY    35  29  78 S8        29.97R WCI  29
MONUMENT HILL  FAIR      32  25  74 NW6       29.99R WCI  26
CANON CITY     FAIR      41  30  65 W15       29.95S
WALSENBURG     NOT AVBL
TRINIDAD       FAIR      40  17  39 W8        29.94F
$$

COZ042>045-048>051-090-091-301200-
...NORTHEAST COLORADO...

CITY           SKY/WX    TMP DP  RH WIND       PRES   REMARKS
GREELEY        MOCLDY    33  27  78 N9        29.98S WCI  25
AKRON          CLOUDY    41  29  62 SE7       29.95F
BURLINGTON     FAIR      38  31  76 S18       29.95F
WRAY           FAIR      39  30  70 E5        29.99S
YUMA           NOT AVBL
STERLING       FAIR      34  28  80 N7        29.97R WCI  28
HOLYOKE        FAIR      36  32  87 NE5       30.00F
FORT MORGAN    CLOUDY    37  26  63 N6        29.97S
$$

COZ086-089-092>099-301200-
...SOUTHEAST COLORADO...

CITY           SKY/WX    TMP DP  RH WIND       PRES   REMARKS
PUEBLO         FAIR      42  19  39 S5        29.93S
LA JUNTA       FAIR      38  20  48 S9        29.92S
LAMAR          FAIR      42  28  57 SW10G20   29.93S
SPRINGFIELD      N/A     33  27  78 S5        29.97F WCI  29
$$



USA.gov is the U.S. government's official web portal to all federal, state and local government web resources and services.